Regional Weather Roundup
Issued by NWS

Home | Current Version | Previous Version | Text Only | Print | Product List | Glossary On
Versions: 1 2 3 4 5 6 7 8 9 10 11 12 13 14 15 16 17 18 19 20 21 22 23 24 25 26 27 28 29 30 31 32 33 34 35 36 37 38 39 40 41 42 43 44 45 46 47 48 49 50
000
ASUS43 KDMX 041007
RWRIA

WEATHER ROUNDUP FOR IOWA
NATIONAL WEATHER SERVICE DES MOINES IA
500 AM CDT MON MAY 04 2015

NOTE: "FAIR" INDICATES FEW OR NO CLOUDS BELOW 12,000 FEET WITH NO
SIGNIFICANT WEATHER AND/OR OBSTRUCTIONS TO VISIBILITY.

* - THESE STATIONS ARE NOT NWS STATIONS...THUS NOT UNDER NWS
QUALITY CONTROL.  THEY ALSO DO NOT REPORT WEATHER SUCH
AS PRECIPITATION OR FOG.

IAZ001>003-012>014-020>022-031>034-043>046-041100-
   NORTHWEST IOWA

CITY           SKY/WX    TMP DP  RH WIND       PRES   REMARKS
CARROLL *      CLOUDY    57  50  77 N17       29.99R
CHEROKEE *     CLOUDY    55  34  44 N10       30.02F
DENISON *      PTCLDY    57  50  77 NE16G24   29.96R
LE MARS *      PTCLDY    54  32  43 N10       30.05R
ORANGE CITY *  CLEAR     52  28  40 N10G16    30.04S
SHELDON *      MOCLDY    50  32  50 N10       30.04R
SIOUX CITY     CLOUDY    56  39  53 N10       30.04R
SPENCER        CLOUDY    51  36  56 N10       30.04R
STORM LAKE *   DRIZZLE   54  41  62 N10       30.04R
$$

IAZ055>058-069>071-079>083-090>094-041100-
   SOUTHWEST IOWA

CITY           SKY/WX    TMP DP  RH WIND       PRES   REMARKS
ATLANTIC *     MOCLDY    59  55  88 N10       29.96R
AUDUBON *      PTCLDY    57  52  82 N7        30.00R
CLARINDA *     PTCLDY    63  59  88 N7        29.92F
COUNCIL BLFS * CLEAR     59  57  94 N13       29.96R
CRESTON *      CLEAR     63  59  88 NE5       29.94R
HARLAN  *      CLEAR     57  57 100 NE9       30.01R
LAMONI         LGT RAIN  65  58  78 W15G22    29.96R
RED OAK *      CLEAR     61  59  94 N6        29.93S
SHENANDOAH *   PTCLDY    61  57  88 N7        29.93F
$$

IAZ047>049-059>061-072>074-084-041100-
   CENTRAL IOWA

CITY           SKY/WX    TMP DP  RH WIND       PRES   REMARKS
AMES           CLOUDY    61  55  81 N10       29.96R
ANKENY *       PTCLDY    63  55  77 E7        29.94R
CHARITON *     CLOUDY    63  59  88 S3        29.95R
DES MOINES     CLOUDY    63  55  75 E7        29.93R
GRINNELL*      CLOUDY    59  57  94 E10       29.96S
KNOXVILLE *    CLEAR     63  57  82 NE8       29.93R
MARSHALLTOWN   CLOUDY    62  56  80 S6        29.94R
PELLA *        CLOUDY    61  59  94 E7        29.96R
PERRY *          N/A     61  57  88 N8G17     29.96R
$$

IAZ004>006-015-016-023>025-035-036-041100-
   NORTH CENTRAL IOWA

CITY           SKY/WX    TMP DP  RH WIND       PRES   REMARKS
ALGONA *       PTCLDY    54  43  66 N12G17    30.01R
CLARION *      MOCLDY    55  55 100 NE10      29.99R
ESTHERVILLE    CLOUDY    50  33  52 N14       30.02R
FORT DODGE *   CLOUDY    55  48  76 NE5       30.02R
MASON CITY     MOCLDY    54  51  90 N9        30.01R
FOREST CITY *  CLEAR     52  46  82 N8        30.01R
IOWA FALLS *     N/A     59  57  94 NW8       30.00R
$$

IAZ007>011-017>019-026>030-037>042-050>054-066-041100-
   NORTHEAST IOWA

CITY           SKY/WX    TMP DP  RH WIND       PRES   REMARKS
CEDAR RAPIDS   RAIN      59  57  93 SE6       29.96
CHARLES CITY * MOCLDY    57  57 100 NE10      29.98R
CLINTON *      CLOUDY    57  55  94 SW10      30.01R
DECORAH *      MOCLDY    57  57 100 N7        29.97S
DUBUQUE        LGT RAIN  56  55  97 SW6       29.96R FOG
MONTICELLO *   CLOUDY    59  59 100 S8        29.96S
OELWEIN *      MOCLDY    57  57 100 NE3       29.95R
WATERLOO       CLOUDY    59  58  96 W8        29.95R
$$

IAZ064-065-067-068-078-041100-
   EAST CENTRAL IOWA

CITY           SKY/WX    TMP DP  RH WIND       PRES   REMARKS
DAVENPORT      LGT RAIN  60  56  86 NW9       30.00R
IOWA CITY      LGT RAIN  60  58  92 E6        29.98S
MT. PLEASANT * LGT RAIN  61  57  88 E10       29.98R
MUSCATINE *    CLOUDY    61  57  88 SE5       29.99R
QUAD CITIES    CLOUDY    60  57  89 VRB3      29.95S
$$

IAZ062-063-075>077-085>089-095>099-041100-
   SOUTHEAST IOWA

CITY           SKY/WX    TMP DP  RH WIND       PRES   REMARKS
BURLINGTON     CLOUDY    62  57  83 E8        29.98R
FAIRFIELD *    CLOUDY    63  55  77 E5        29.97R
FORT MADISON * MOCLDY    63  57  82 E7        29.99R
KEOKUK *       LGT RAIN  64  59  82 CALM      29.96S
OSKALOOSA *    LGT RAIN  61  55  82 E7        29.96R
CENTERVILLE *  LGT RAIN  64  63  94 W3        29.97F
OTTUMWA        CLOUDY    63  59  87 S6        29.95R
WASHINGTON *   CLOUDY    61  61 100 E6        29.99R
$$

ABBREVIATIONS USED IN REMARKS
   TC - TEMPERATURES IN CELSIUS
  WCI - WIND CHILL INDEX
   HX - HEAT INDEX
  VSB - VISIBILITY
$$



USA.gov is the U.S. government's official web portal to all federal, state and local government web resources and services.